Location: Madrid
(40.4000°N, 3.6830°W)
Time: 07:22:53
(UTC+01:00)

ISS - Pass Details

Date: 26 November 2020
Orbit: 418 x 420 km, 51.6° (Epoch: 04 December)

Event Time Altitude Azimuth Distance (km) Brightness Sun altitude
Rises 19:43:59 0° 293° (WNW) 2,361 1.0 -21.2°
Reaches altitude 10° 19:47:00 10° 322° (NW) 1,498 -0.6 -21.8°
Enters shadow 19:48:10 13° 342° (NNW) 1,340 -1.1 -22.0°
